カタログに戻る

NAVSTAR 61

USA 199

運用中ナビゲーションHEO
NORAD 32384·PAYLOAD·🇺🇸 United States

打ち上げ Dec 20, 2007 から Cape Canaveral Space Force Station

Loading…

次のパス (今後24時間)

TLE

最新Source: CelesTrak SupGP

元期: Sep 16, 2026, 16:44 UTC

1 32384C 07062A   26259.69756944  .00000000  00000+0  00000+0 0  2596
2 32384  54.9639 270.4668 0035891 170.2361 124.8404  2.00565463    12

AllMySatでNAVSTAR 61をリアルタイム追跡

Download on the App Store